星链-3327 (STARLINK-3327 )

导读

STARLINK-3327是美国SpaceX公司Starlink星链星座的一员,于2022年1月6日发射升空,运行在近地轨道,属于星链一代组网卫星。它旨在参与构建全球卫星互联网星座,为偏远地区、移动场景以及应急通信提供宽带互联网接入服务,是星链实现全球覆盖目标的重要组成部分,助力星链拓展航空、海事等多元化商用服务场景。

基本信息
目录编号:
50819
目录名称:
STARLINK-3327
国际标识:
2022-001S
轨道中心:
EARTH
卫星名称:
星链-3327
卫星全名:
星链-3327 (STARLINK-3327 )
卫星状态:
在轨 (已飞行1623 天)
发射日期:
2022-01-06 UTC
国别 :
美国 (US)
星等 :
--
轨道信息
数据来源 国际轨道数据
星历时间: 2026-06-17T07:55:04+0800
19小时前
查看轨道信息
半长轴: 6917.821km
偏心率: 0.0001898
轨道倾角: 53.162°
近地点辐角 132.261°
升交点赤经 83.224°
平近点角 227.855°
近地点: 538.37km
远地点: 540.998km
周期: 95.436分钟
每日圈数: 15.088595
详细信息
固有亮度:
5
最大亮度:
2.5
卫星平台:
Starlink v1.5
覆盖范围:
全球
运营商:
太空探索技术公司
运营商所在国:
美国
制造商(研发单位):
太空探索技术公司
制造商所在国:
美国
使用方式:
暂无
卫星简介
星链(Starlink)计划是由太空探索技术公司(SpaceX)提出的一个巨型低轨卫星互联网星座项目,计划在2019年至2024年间在太空搭建由约1.2万颗卫星组成的“星链”网络,其中1584颗将部署在地球上空550千米处的近地轨道,并从2020年开始工作。该卫星仍在工作。
2D轨道图
3D轨道图
轨道高度分析图
轨道倾角分析图
轨道综合分析图
查看轨道综合分析图